الصفحة الرئيسية
METAR-TAF:

METAR-TAF

مطار :

توسان, أريزونا, الولايات المتحدة

دائرة عرض: 32-08-32N, خط طول: 111-10-28W, ارتفاع: 737 متر

مراقبة الطقس الحالي

تاريخ ووقت الإصدار 1ساعة و 26 دقيقة قبل الساعة 21:45UTC
ريح 9 عقدة من الغرب/الشمال الغربي تتزايد حتى 15 عقدة
درجة الحرارة 24°درجة مئوية
الرطوبة 14%
ضغط 1017 hPa
الرؤية: 16.1 كم
سماء صافية

METAR: KRYN 232145Z 29009G15KT 10SM CLR 24/M05 A3004

زمن: 16:11 (23:11 UTC)


TAF: مفقودة

أرصاد الطقس والتوقعات من أكثر من 4000 مطار (تقارير الطقس للمطار METAR والتنبؤ بالطقس بالمطارTAF).

المحطات المتاحة هي النقط الصفراء والحمراء على الخريطة.

حرك المؤشر فوق النقطة لمعرفة اسم المحطة.

ثم انقر لمعرفة أرصاد وتوقعات الطقس.

لتغيير الخارطة: اضغط على الأزرار الخضراء مع رمز الصليب الأسود للتكبير. على الزر الأخضر مع شرطة للتصغير، أو على الأسهم الخضراء للخرائط المجاورة.


METAR-TAF: